Regional Weather Roundup
Issued by NWS

Home | Current Version | Previous Version | Graphics & Text | Print | Product List | Glossary On
Versions: 1 2 3 4 5 6 7 8 9 10 11 12 13 14 15 16 17 18 19 20 21 22 23 24 25 26 27 28 29 30 31 32 33 34 35 36 37 38 39 40 41 42 43 44 45 46 47 48 49 50
269
ASUS43 KMPX 221801
RWRMN
WEATHER ROUNDUP FOR MINNESOTA
NATIONAL WEATHER SERVICE TWIN CITIES/CHANHASSEN MN
100 PM CDT THU JUN 22 2017


NOTE: "FAIR" INDICATES FEW OR NO CLOUDS BELOW 12,000 FEET WITH NO
SIGNIFICANT WEATHER AND/OR OBSTRUCTIONS TO VISIBILITY. N/A MEANS
CURRENT SKY AND/OR WEATHER CONDITIONS ARE NOT AVAILABLE.

MNZ060>063-068>070-221900-
   Twin Cities Metro

CITY           SKY/WX    TMP DP  RH WIND       PRES   REMARKS
TWIN CITIES    LGT RAIN  70  66  87 VRB3      29.70F
6HR MIN TEMP:  68; 6HR MAX TEMP:  72; 6HR PCP:  0.40;

ST PAUL        LGT RAIN  68  67  96 W3        29.72R
CRYSTAL        LGT RAIN  67  62  84 NW7       29.72S
BLAINE         CLOUDY    68  66  94 CALM      29.73F
LAKEVILLE      TSTM      70  70 100 E6        29.68R
EDEN PRAIRIE   LGT RAIN  69  66  90 NE6       29.67F FOG
6HR MIN TEMP:  68; 6HR MAX TEMP:  72; 6HR PCP:  0.33;

SOUTH ST PAUL  CLOUDY    68  67  99 CALM      29.71R THUNDER
LAKE ELMO      FAIR      66  64  94 CALM      29.71S
$$
MNZ001>005-007-008-013>017-022>024-027-028-221900-
   Northwest Minnesota

CITY           SKY/WX    TMP DP  RH WIND       PRES   REMARKS
BEMIDJI        SUNNY     72  45  37 W16G23    29.69F
HALLOCK        MOSUNNY   73  45  35 W18       29.64S
ROSEAU         SUNNY     72  48  43 MISG      29.64F
WARROAD        SUNNY     70  46  43 SW15      29.64F
CROOKSTON      SUNNY     73  52  46 NW16G22   29.69S
FOSSTON        SUNNY     70  48  46 W16G25    29.71S
DETROIT LAKES  SUNNY     73  45  35 NW15G22   29.74F
MOORHEAD       SUNNY     75  45  33 NW15G21   29.73S
PARK RAPIDS    CLOUDY    76  42  29 W20       29.72S
MAHNOMEN       FAIR      71  50  47 W17G24    29.72S
$$
MNZ006-009>011-018-025>026-221900-
   North Central Minnesota

CITY           SKY/WX    TMP DP  RH WIND       PRES   REMARKS
BAUDETTE       SUNNY     71  41  33 W9        29.64F
FLAG ISLAND    SUNNY     70  41  35 SW22      29.60F HAZE
INTL FALLS     MOSUNNY   72  44  36 VRB5G17   29.64F
6HR MIN TEMP:  58; 6HR MAX TEMP:  72;

WASKISH        CLOUDY    68  55  64 SW9       29.67F
BIG FORK       PTSUNNY   72  46  40 W7        29.68F
LONGVILLE      MOSUNNY   73  48  40 W7        29.72S
GRAND RAPIDS   MOSUNNY   71  46  40 W10       29.72S
CRANE LAKE     CLOUDY    68  41  37 W5        29.67F
ORR            MOSUNNY   72  43  35 NW6       29.64F
COOK           CLOUDY    72  43  35 NW10G16   29.67F
WALKER         FAIR      73  46  38 W10G18    29.71S
$$
MNZ012-019>021-037-221900-
   Northeast Minnesota

CITY           SKY/WX    TMP DP  RH WIND       PRES   REMARKS
DULUTH         CLOUDY    71  51  49 W7        29.71R
6HR MIN TEMP:  60; 6HR MAX TEMP:  71;

ELY            MOSUNNY   72  48  43 NW7       29.66S
HIBBING        CLOUDY    71  47  42 NW14G20   29.68F
EVELETH        MOSUNNY   73  36  26 NW8       29.70R
DULUTH HARBOR  CLOUDY    73  54  49 SW8       29.70R
TWO HARBORS    CLOUDY    73  59  60 SW8       29.67R
SILVER BAY       N/A    N/A N/A N/A CALM      29.66R
GRAND MARAIS     N/A     53  49  86 W13       29.64F
G MARAIS ARPRT CLOUDY    68  48  49 CALM      29.67F
$$
MNZ029>031-032-039>041-046>048-054>057-064-221900-
   West Central Minnesota

CITY           SKY/WX    TMP DP  RH WIND       PRES   REMARKS
FERGUS FALLS   MOSUNNY   72  52  49 NW9       29.73S
WHEATON        CLOUDY    73  50  43 CALM      29.78S
MORRIS         PTSUNNY   66  57  72 W5        29.76S
ALEXANDRIA     CLOUDY    70  55  59 VRB6      29.76F
ELBOW LAKE     FAIR      71  52  52 NW5       29.76S
WADENA         CLOUDY    72  48  43 NW6       29.74S
GLENWOOD       CLOUDY    64  55  72 SW5       29.77R
APPLETON       CLOUDY    63  57  82 W8        29.78R
BENSON         CLOUDY    63  59  88 N5        29.77S
ORTONVILLE     CLOUDY    63  57  82 CALM      29.79R
MADISON        LGT RAIN  63  63 100 CALM      29.75S
WILLMAR        LGT RAIN  61  61 100 CALM      29.77R
$$
MNZ033>034-036-042>043-049>051-058-059-221900-
   Central Minnesota

CITY           SKY/WX    TMP DP  RH WIND       PRES   REMARKS
ST CLOUD       LGT RAIN  61  60  97 N7        29.71F
6HR MIN TEMP:  59; 6HR MAX TEMP:  66; 6HR PCP:  0.29;

SAUK CENTRE    FAIR      62  55  78 CALM      29.76R
PAYNESVILLE    LGT RAIN  60  60 100 CALM      29.74R
AITKIN         MOSUNNY   72  52  49 S6        29.71S
PINE RIVER     CLOUDY    72  54  53 CALM      29.76S
BRAINERD       CLOUDY    73  41  31 CALM      29.73F
STAPLES        MOSUNNY   73  43  33 CALM      29.73F
LONG PRAIRIE   FAIR      66  59  77 S6        29.75S
LITTLE FALLS   PTSUNNY   64  55  72 SW3       29.73F
LITCHFIELD     LGT RAIN  63  61  94 NW3       29.75R
BUFFALO        CLOUDY    63  59  88 NE7       29.71F
MAPLE LAKE     CLOUDY    63  61  95 CALM      29.71F
HUTCHINSON     RAIN      67  63  89 NW8       29.76R
$$
MNZ037-044-045-052-053-221900-
   East Central Minnesota

CITY           SKY/WX    TMP DP  RH WIND       PRES   REMARKS
PRINCETON      CLOUDY    63  61  94 N3        29.71F
MORA           CLOUDY    63  55  77 CALM      29.75S
CAMBRIDGE      CLOUDY    66  57  72 CALM      29.74R
RUSH CITY      CLOUDY    64  61  88 CALM      29.74R
MOOSE LAKE     CLOUDY    72  52  49 SW7       29.71S
HINCKLEY       FAIR      68  61  77 SW5       29.73F
CLOQUET        CLOUDY    72  45  37 SW6       29.72S
MCGREGOR       PTSUNNY   70  52  52 S3        29.73R
$$
MNZ071>073-080-081-089-090-097-098-221900-
   Southwest Minnesota

CITY           SKY/WX    TMP DP  RH WIND       PRES   REMARKS
MONTEVIDEO     PTSUNNY   63  63 100 SW13      29.78R
GRANITE FALLS  LGT RAIN  65  62  89 W5        29.80R
CANBY          LGT RAIN  63  61  93 CALM      29.80R
MARSHALL       LGT RAIN  65  61  87 N12       29.77R
REDWOOD FALLS  TSTM      67  63  87 CALM      29.74R FOG
OLIVIA         CLOUDY    63  59  88 N6        29.76R
PIPESTONE      CLOUDY    72  63  73 NE8       29.78R
WINDOM         CLOUDY    75  64  69 E9        29.71R
WORTHINGTON    CLOUDY    74  64  71 E12       29.74R
JACKSON        CLOUDY    75  64  69 E15       29.70S
TRACY          CLOUDY    69  64  83 N9        29.77R
SLAYTON        CLOUDY    72  59  64 NE5       29.75R
$$
MNZ065>067-074>077-082>085-091>093-221900-
   South Central Minnesota

CITY           SKY/WX    TMP DP  RH WIND       PRES   REMARKS
MANKATO        CLOUDY    74  68  81 E13       29.69R
NEW ULM        MOSUNNY   72  66  83 NE3       29.70R
ST JAMES       MOSUNNY   75  70  83 E10       29.70R
FAIRMONT       MOSUNNY   77  67  71 E16G24    29.69F
GLENCOE        CLOUDY    69  66  92 CALM      29.72R
FARIBAULT      CLOUDY    70  66  88 E9        29.70R THUNDER
OWATONNA       TSTM      68  64  88 SE14      29.72F
WASECA         CLOUDY    68  63  83 E14G21    29.72S
ALBERT LEA     CLOUDY    70  68  94 E7        29.74R
$$
MNZ078>079-086>088-094>096-221900-
   Southeast Minnesota

CITY           SKY/WX    TMP DP  RH WIND       PRES   REMARKS
ROCHESTER      CLOUDY    70  68  93 SE8       29.74F
6HR MIN TEMP:  65; 6HR MAX TEMP:  73; 6HR PCP:  0.70;

RED WING       CLOUDY    72  66  83 E3        29.69F
STANTON        CLOUDY    71  66  84 SE6       29.70R THUNDER
DODGE CENTER   RAIN      70  66  88 CALM      29.75F
WINONA         DRIZZLE   70  64  83 W8        29.76R
AUSTIN         CLOUDY    70  66  88 E5        29.73F
PRESTON        LGT RAIN  67  64  92 W3        29.79R
$$
ABBREVIATIONS USED IN REMARKS
   TC - TEMPERATURES IN CELSIUS
  WCI - WIND CHILL INDEX
   HX - HEAT INDEX
  VSB - VISIBILITY
$$




USA.gov is the U.S. government's official web portal to all federal, state and local government web resources and services.